[[{"header":{"parameterUnit":"m.s-1","parameterCategory":1,"la1":30.2991,"la2":30.254,"lo1":-89.0895,"lo2":-89.0444,"dy":0.0017,"dx":0.0017,"nx":28,"ny":28,"refTime":"2023-08-19T03:00:00:Z","depth":0,"parameterNumber":2,"parameterNumberName":"U-component_of_WINDS"},"data":[0,0,0,0,0,0,0,0,0,0,0,0,0,0,0,0,0,0,0,0,0,0,0,0,0,0,0,0,0,0,0,0,0,0,0,0,0,0,0,0,0,0,0,0,0,0,0,0,0,0,0,0,0,0,0,0,0,0,1.1349,1.1349,0,1.1361,1.1361,1.1361,1.1317,1.1316,1.1314,1.1313,1.1328,1.133,1.1331,0,0,0,0,0,0,0,0,0,0,0,0,0,1.129,1.1292,1.1349,1.1349,1.1349,1.1361,1.1361,1.1361,1.1317,1.1316,1.1314,1.1312,1.1328,1.1329,1.1331,0,0,0,0,0,0,0,0,0,0,0,0,0,1.1311,1.1292,1.1349,1.1328,1.1327,1.1361,1.1361,1.1361,1.1318,1.1316,1.1314,1.1312,1.1327,1.1329,1.1332,1.1387,0,0,1.1339,1.134,0,0,0,0,0,0,0,0,1.1309,1.1313,1.1331,1.133,1.1328,1.1335,1.1346,1.137,1.1318,1.1321,1.1313,1.1311,1.1332,1.1334,1.1341,1.1388,1.1388,1.1339,1.1341,1.1342,1.1343,0,0,0,0,0,0,0,1.1308,1.1312,1.1353,1.1331,1.1329,1.132,1.132,1.135,1.1338,1.1321,1.1317,1.1319,1.1331,1.1339,1.1341,1.1389,1.1339,1.1342,1.1343,1.1344,1.1485,1.1487,0,0,0,0,0,0,1.1309,1.1311,1.1353,1.1354,1.1313,1.1322,1.1323,1.1335,1.1337,1.1336,1.1321,1.1317,1.1335,1.1338,1.1341,1.1408,1.1342,1.1344,1.1346,1.1482,1.1485,1.1488,0,0,0,0,0,0,1.1308,1.1313,1.1353,1.1332,1.1336,1.1326,1.1339,1.1336,1.1344,1.1338,1.1335,1.1331,1.1334,1.1338,1.1377,1.1408,1.1345,1.1348,1.148,1.1483,1.1486,1.1542,0,0,0,0,0,0,1.1306,1.1313,1.1333,1.1332,1.1337,1.1387,1.1341,1.1338,1.1348,1.1343,1.1346,1.1345,1.1333,1.1373,1.1379,1.141,1.135,1.1477,1.1481,1.1485,1.1537,1.1547,1.1555,0,0,0,0,0,1.1304,1.1348,1.1334,1.1339,1.1362,1.1388,1.1391,1.1376,1.1351,1.1371,1.1368,1.1345,1.1404,1.1377,1.1384,1.1416,1.1475,1.148,1.1485,1.1533,1.1545,1.1554,0,0,0,0,0,0,1.1352,1.1347,1.1332,1.1376,1.1383,1.1381,1.1406,1.1388,1.1403,1.1397,1.1378,1.1379,1.1422,1.1423,1.1394,1.1472,1.1435,1.1442,1.147,1.1481,1.1489,1.1489,1.1352,0,0,0,0,0,1.1368,1.1389,1.1384,1.1423,1.1428,1.1417,1.1428,1.1415,1.1422,1.1425,1.1424,1.1432,1.1453,1.1466,1.1485,1.1537,1.1538,1.1563,1.1571,1.1579,1.1585,1.1616,1.1627,1.1504,1.1504,1.1504,0,0,1.14,1.14,1.1415,1.1433,1.1437,1.1461,1.1419,1.1446,1.1464,1.1429,1.1466,1.1466,1.1474,1.152,1.154,1.1522,1.1619,1.1585,1.1591,1.1593,1.1622,1.1634,1.1644,1.1508,1.1507,1.1507,0,0,1.1472,1.1473,1.1507,1.1513,1.1519,1.1512,1.152,1.1522,1.152,1.1557,1.1532,1.1554,1.1589,1.1596,1.1605,1.1683,1.1663,1.1689,1.1736,1.1766,1.1775,1.1784,1.1814,1.1825,1.1695,1.1695,1.1695,0,1.1512,1.1546,1.1527,1.1556,1.1566,1.1536,1.1572,1.1578,1.159,1.1599,1.1578,1.1623,1.1626,1.1675,1.1694,1.1702,1.1712,1.1689,1.1775,1.1784,1.1791,1.182,1.1831,1.1699,1.1698,1.1698,1.1698,0,1.1596,1.162,1.1647,1.166,1.1673,1.1705,1.1694,1.1709,1.1696,1.1692,1.1731,1.1734,1.1754,1.1764,1.1752,1.1813,1.1802,1.1778,1.1741,1.1807,1.1833,1.1844,1.1703,1.1702,1.1701,1.17,0,0,1.1697,1.1701,1.1712,1.1718,1.1725,1.1744,1.1776,1.1795,1.181,1.182,1.1848,1.1879,1.1859,1.1868,1.1857,1.1883,1.1947,1.1857,1.1857,1.1875,1.2018,1.2036,1.2049,1.1934,1.1936,1.1938,1.2018,0,1.1769,1.1823,1.1809,1.1864,1.1887,1.186,1.1888,1.1896,1.1893,1.1914,1.1911,1.1935,1.1905,1.1911,1.1935,1.1934,1.1976,1.1928,1.1962,1.1963,1.1962,1.2062,1.2081,1.2157,1.2028,1.2029,1.2031,0,1.186,1.1875,1.1932,1.1937,1.1946,1.1971,1.1989,1.2009,1.2018,1.2015,1.2027,1.2011,1.2044,1.2007,1.2055,1.2022,1.2036,1.2037,1.204,1.2043,1.2002,1.2071,1.218,1.2193,1.2046,1.2045,1.2044,0,1.1932,1.1965,1.2004,1.2011,1.2016,1.2035,1.2039,1.2046,1.2059,1.2075,1.2084,1.2104,1.2115,1.2132,1.2122,1.2095,1.2173,1.2134,1.2173,1.2173,1.2191,1.219,1.2306,1.2197,1.2197,1.2196,1.2196,0,1.2015,1.2051,1.2037,1.2061,1.2102,1.2086,1.2127,1.2128,1.2135,1.216,1.2137,1.2162,1.2147,1.2171,1.2164,1.2206,1.221,1.221,1.2208,1.2213,1.2213,1.2222,1.2217,1.2199,1.2199,1.2198,1.2198,0,1.2101,1.2092,1.2134,1.2136,1.2138,1.2168,1.2171,1.2195,1.2191,1.2223,1.223,1.2225,1.2252,1.2244,1.2273,1.2268,1.2322,1.2313,1.2319,1.2318,1.2358,1.2355,1.2485,1.2502,1.238,1.2381,1.2382,0,1.2155,1.2183,1.2189,1.2204,1.2209,1.2233,1.2247,1.2233,1.2249,1.2263,1.2286,1.2311,1.233,1.2375,1.2375,1.2398,1.239,1.2434,1.2393,1.2398,1.2393,1.2392,1.2396,1.2443,1.2444,1.2445,1.2446,0,1.2253,1.2248,1.2268,1.2288,1.2305,1.232,1.2333,1.2347,1.2334,1.2353,1.2381,1.2396,1.2426,1.2453,1.2474,1.2479,1.2462,1.2459,1.2469,1.2475,1.2479,1.248,1.2343,1.2456,1.2455,1.2454,1.2454,1.2453,1.2327,1.2351,1.2359,1.2384,1.2392,1.2405,1.2428,1.2428,1.245,1.2474,1.2464,1.2497,1.2508,1.2535,1.2543,1.257,1.2553,1.2568,1.2572,1.2576,1.2582,1.2474,1.2573,1.2573,1.2573,1.2572,1.2572,0,1.2425,1.243,1.2452,1.2471,1.2491,1.2472,1.2486,1.2504,1.2532,1.2544,1.2564,1.2597,1.2623,1.2625,1.265,1.2671,1.2664,1.2678,1.2677,1.2679,1.2594,1.2584,1.2684,1.2684,1.2684,1.2684,1.2684,1.2684,1.2479,1.252,1.2516,1.2562,1.2566,1.2597,1.2608,1.2621,1.263,1.2668,1.2689,1.269,1.2699,1.2725,1.2748,1.2749,1.276,1.2778,1.2775,1.2696,1.2685,1.2674,1.2664,1.278,1.278,1.2858,1.2859,1.2859]},{"header":{"parameterUnit":"m.s-1","parameterCategory":1,"la1":30.2991,"la2":30.254,"lo1":-89.0895,"lo2":-89.0444,"dy":0.0017,"dx":0.0017,"nx":28,"ny":28,"refTime":"2023-08-19T03:00:00:Z","depth":0,"parameterNumber":3,"parameterNumberName":"V-component_of_WINDS"},"data":[0,0,0,0,0,0,0,0,0,0,0,0,0,0,0,0,0,0,0,0,0,0,0,0,0,0,0,0,0,0,0,0,0,0,0,0,0,0,0,0,0,0,0,0,0,0,0,0,0,0,0,0,0,0,0,0,0,0,1.3748,1.3748,0,1.3783,1.3784,1.3784,1.376,1.3759,1.3758,1.3757,1.3792,1.3794,1.3796,0,0,0,0,0,0,0,0,0,0,0,0,0,1.3656,1.3658,1.3748,1.3748,1.3749,1.3783,1.3784,1.3784,1.3761,1.3759,1.3758,1.3757,1.3792,1.3794,1.3796,0,0,0,0,0,0,0,0,0,0,0,0,0,1.3694,1.3658,1.3748,1.3741,1.3741,1.3783,1.3784,1.3784,1.3761,1.3759,1.3758,1.3756,1.3791,1.3794,1.3797,1.3847,0,0,1.3805,1.3807,0,0,0,0,0,0,0,0,1.3692,1.3697,1.3742,1.3742,1.3742,1.3766,1.3764,1.3805,1.3761,1.3753,1.3757,1.3755,1.3785,1.3788,1.3798,1.3849,1.385,1.3806,1.3807,1.3809,1.381,0,0,0,0,0,0,0,1.3689,1.3696,1.3762,1.3742,1.3742,1.3735,1.3739,1.3772,1.3778,1.3754,1.3752,1.3757,1.3784,1.3795,1.3799,1.3851,1.3806,1.3808,1.381,1.3811,1.3938,1.3939,0,0,0,0,0,0,1.3687,1.3694,1.3761,1.3763,1.3712,1.3738,1.3742,1.376,1.3777,1.3778,1.3758,1.3755,1.3791,1.3795,1.38,1.3856,1.3809,1.3811,1.3813,1.3936,1.3938,1.394,0,0,0,0,0,0,1.3686,1.3694,1.3759,1.3728,1.3736,1.3741,1.3761,1.3761,1.3772,1.378,1.3781,1.3769,1.379,1.3796,1.3834,1.3857,1.3813,1.3815,1.3934,1.3937,1.3939,1.3971,0,0,0,0,0,0,1.3683,1.3693,1.3714,1.3729,1.3737,1.3795,1.3763,1.3763,1.3777,1.3774,1.379,1.3792,1.3789,1.383,1.3837,1.386,1.3818,1.3932,1.3935,1.3938,1.3968,1.3974,1.3979,0,0,0,0,0,1.368,1.3723,1.3715,1.3723,1.3764,1.3796,1.3801,1.3798,1.378,1.3799,1.3803,1.3791,1.3853,1.3834,1.3842,1.3866,1.3931,1.3934,1.3938,1.3965,1.3973,1.3979,0,0,0,0,0,0,1.3712,1.3725,1.3717,1.3766,1.378,1.3792,1.3817,1.3807,1.3827,1.3823,1.3818,1.3822,1.386,1.3868,1.3846,1.3913,1.3889,1.3894,1.3907,1.3914,1.392,1.3917,1.382,0,0,0,0,0,1.3725,1.3751,1.376,1.3802,1.381,1.3812,1.3826,1.3822,1.3837,1.3842,1.385,1.3864,1.3885,1.3901,1.3922,1.3969,1.3969,1.3989,1.3995,1.3999,1.4004,1.4024,1.4031,1.3952,1.3952,1.3951,0,0,1.3752,1.3761,1.3779,1.3809,1.382,1.3844,1.3818,1.3847,1.3864,1.3847,1.3882,1.3888,1.3902,1.3944,1.3962,1.3951,1.4025,1.4004,1.4008,1.4009,1.4028,1.4036,1.4042,1.3954,1.3954,1.3953,0,0,1.3812,1.3824,1.3858,1.3868,1.3883,1.3884,1.3892,1.3905,1.3907,1.3943,1.3928,1.3949,1.3989,1.3998,1.4008,1.4066,1.4054,1.4073,1.4103,1.4123,1.4129,1.4135,1.4152,1.4158,1.4078,1.4078,1.4078,0,1.3844,1.3882,1.3877,1.3905,1.3917,1.3901,1.3933,1.3943,1.3965,1.3973,1.3959,1.4005,1.4014,1.4055,1.4068,1.4078,1.4084,1.4071,1.4129,1.4134,1.4139,1.4155,1.4162,1.408,1.4079,1.4079,1.4079,0,1.3917,1.3943,1.3968,1.3988,1.4002,1.4033,1.403,1.4046,1.4039,1.404,1.4073,1.4083,1.4104,1.4113,1.4108,1.4152,1.4143,1.413,1.4105,1.4149,1.4164,1.417,1.4083,1.4082,1.4081,1.4081,0,0,1.4001,1.4014,1.4023,1.4029,1.4043,1.4062,1.409,1.4109,1.412,1.4135,1.4156,1.4187,1.4173,1.4184,1.4179,1.4197,1.4237,1.418,1.418,1.4187,1.428,1.4289,1.4296,1.4229,1.423,1.4231,1.4278,0,1.406,1.4108,1.4102,1.4148,1.4169,1.4152,1.4175,1.4185,1.4185,1.4202,1.4203,1.4223,1.4205,1.4211,1.4228,1.4228,1.4255,1.4225,1.4246,1.4246,1.4241,1.4305,1.4315,1.4359,1.4284,1.4285,1.4286,0,1.4136,1.415,1.4197,1.4202,1.4211,1.4233,1.4247,1.4264,1.4273,1.4272,1.4282,1.4272,1.4297,1.4273,1.4304,1.4284,1.4292,1.4293,1.4295,1.4295,1.4268,1.4304,1.4374,1.4379,1.4296,1.4295,1.4294,0,1.4187,1.4219,1.425,1.4256,1.4264,1.4279,1.4282,1.429,1.43,1.4312,1.4318,1.4333,1.4341,1.4352,1.4346,1.4329,1.4377,1.4353,1.4374,1.4374,1.4385,1.4384,1.4453,1.4394,1.4393,1.4393,1.4393,0,1.4252,1.4281,1.4272,1.4291,1.4321,1.4313,1.4342,1.4344,1.435,1.4367,1.4353,1.4369,1.4361,1.4376,1.4371,1.4395,1.44,1.4398,1.4396,1.4398,1.4398,1.4402,1.4397,1.4395,1.4395,1.4394,1.4394,0,1.4315,1.4311,1.4343,1.4346,1.4348,1.4369,1.4371,1.4387,1.4385,1.4407,1.4411,1.4408,1.4424,1.4419,1.4437,1.4433,1.4463,1.4459,1.446,1.4458,1.4478,1.4475,1.4551,1.4559,1.4497,1.4497,1.4498,0,1.4356,1.4377,1.4381,1.4391,1.4395,1.4412,1.4421,1.4413,1.4423,1.4431,1.4445,1.446,1.4471,1.4497,1.4495,1.4507,1.4501,1.4527,1.4503,1.4503,1.4498,1.4496,1.4496,1.4531,1.4532,1.4533,1.4533,0,1.4427,1.4422,1.4437,1.4448,1.4459,1.4468,1.4476,1.4485,1.4476,1.4488,1.4503,1.4511,1.4528,1.4541,1.4551,1.4553,1.454,1.454,1.4545,1.4547,1.4545,1.4543,1.447,1.4539,1.4538,1.4538,1.4537,1.4537,1.4478,1.4494,1.4498,1.4512,1.4516,1.4523,1.4537,1.4535,1.4548,1.456,1.4554,1.457,1.4574,1.4586,1.4589,1.4601,1.4591,1.4599,1.46,1.4602,1.4603,1.4545,1.4603,1.4603,1.4603,1.4603,1.4602,0,1.4545,1.4546,1.4559,1.4569,1.4579,1.4566,1.4573,1.4582,1.4597,1.4601,1.4611,1.4626,1.4638,1.4636,1.4646,1.4655,1.4649,1.4658,1.4656,1.4656,1.4613,1.4606,1.4662,1.4662,1.4662,1.4662,1.4662,1.4662,1.4581,1.4606,1.4601,1.4626,1.4626,1.4642,1.4646,1.4651,1.4654,1.4671,1.468,1.4679,1.4679,1.4688,1.4697,1.4696,1.4699,1.4709,1.4706,1.4665,1.466,1.4654,1.4647,1.4711,1.4711,1.4747,1.4747,1.4747]}]]